Thunderstorms From: 15-12-2017 06:00 Until: 16-12-2017 06:00 warning for: Thunderstorms Level: Yellow info button

Although rather usual in this region, locally or potentially dangerous phenomena are expected. (such as local winds, summer thunderstorms, rising streams or high waves) Be aware and pay attention to the latest weather updates, especially if you carry out activities exposed to weather or close to a stream or shoreline. 


Meteo18 Weather Cam more information Meteo18 Weather Cam


warning for Thunderstorms more information blitzortung!


Rain radar more information rain snow radar


Visit our other weather sites:

Template documentation
and downloads

And another site



Weather Underground History page Text

Daily Summary for February 1, 2016 Units:  Metric    English   Both
« Previous Day
Next Day »
Daily Weekly Monthly Yearly Custom
  High: Low: Average:
Temperature: 11.7 °C 9.8 °C 10.7 °C
Dew Point: 11.2 °C 8.7 °C 9.5 °C
Humidity: 97 % 85 % 92 %
Wind Speed: 12.9 km/h 0.0 km/h 3.6 km/h
Wind Gust: 17.7 km/h - -
Wind:- - SW
Pressure: 1030.0 hPa 1024.6 hPa -
Precipitation: 1.0 mm    
Historical Graphs
 
 
Tabular Data for February 1, 2016
Time Temperature Dew Point Pressure Wind Wind Speed Wind Gust Humidity Rainfall Rate (Hourly)
00:07 11.7 °C 11.2 °C 1024.6 hPa SW 8.0 km/h 12.9 km/h 97 % 0.3 mm
00:12 11.7 °C 11.2 °C 1024.6 hPa SSW 3.2 km/h 12.9 km/h 97 % 0.3 mm
00:17 11.7 °C 11.2 °C 1024.6 hPa SW 4.8 km/h 9.7 km/h 97 % 0.3 mm
00:22 11.7 °C 11.2 °C 1024.6 hPa SW 4.8 km/h 9.7 km/h 97 % 0.3 mm
00:32 11.7 °C 11.2 °C 1024.9 hPa Calm   11.3 km/h 97 % 0.3 mm
00:37 11.7 °C 11.2 °C 1024.9 hPa WSW 1.6 km/h 12.9 km/h 97 % 0.3 mm
00:42 11.7 °C 11.2 °C 1024.9 hPa ENE 1.6 km/h 12.9 km/h 97 % 0.3 mm
00:47 11.7 °C 11.2 °C 1024.9 hPa SSW 6.4 km/h 11.3 km/h 97 % 0.3 mm
00:57 11.6 °C 11.1 °C 1025.3 hPa SW 4.8 km/h 11.3 km/h 97 % 0.0 mm
01:02 11.6 °C 11.1 °C 1025.3 hPa West 1.6 km/h 11.3 km/h 97 % 0.0 mm
01:07 11.6 °C 11.1 °C 1025.3 hPa WSW 1.6 km/h 11.3 km/h 97 % 0.0 mm
01:17 11.6 °C 11.1 °C 1025.3 hPa WSW 3.2 km/h 11.3 km/h 97 % 0.0 mm
01:22 11.5 °C 11.0 °C 1025.3 hPa SE 1.6 km/h 11.3 km/h 97 % 0.3 mm
01:32 11.5 °C 11.0 °C 1025.3 hPa WSW 4.8 km/h 9.7 km/h 97 % 0.3 mm
01:37 11.4 °C 10.9 °C 1025.3 hPa WSW 1.6 km/h 11.3 km/h 97 % 0.3 mm
01:47 11.4 °C 10.9 °C 1025.3 hPa Calm   8.0 km/h 97 % 0.3 mm
01:57 11.4 °C 10.9 °C 1025.6 hPa SSE 4.8 km/h 8.0 km/h 97 % 0.3 mm
02:02 11.4 °C 10.9 °C 1025.6 hPa SSW 12.9 km/h 12.9 km/h 97 % 0.5 mm
02:07 11.3 °C 10.8 °C 1025.6 hPa SW 3.2 km/h 9.7 km/h 97 % 0.5 mm
02:17 11.3 °C 10.8 °C 1025.6 hPa WSW 6.4 km/h 12.9 km/h 97 % 0.5 mm
02:22 11.3 °C 10.8 °C 1025.6 hPa SW 3.2 km/h 11.3 km/h 97 % 0.5 mm
02:32 11.2 °C 10.7 °C 1025.6 hPa SW 8.0 km/h 11.3 km/h 97 % 0.5 mm
02:42 11.2 °C 10.7 °C 1025.6 hPa SSW 3.2 km/h 12.9 km/h 97 % 0.5 mm
02:47 11.2 °C 10.7 °C 1025.6 hPa SW 1.6 km/h 12.9 km/h 97 % 0.5 mm
02:52 11.2 °C 10.7 °C 1026.0 hPa WSW 4.8 km/h 8.0 km/h 97 % 0.5 mm
02:57 11.2 °C 10.7 °C 1026.0 hPa SSE 4.8 km/h 8.0 km/h 97 % 0.5 mm
03:02 11.1 °C 10.5 °C 1026.0 hPa SW 8.0 km/h 11.3 km/h 96 % 0.5 mm
03:12 11.1 °C 10.5 °C 1026.0 hPa WSW 3.2 km/h 16.1 km/h 96 % 0.5 mm
03:19 11.1 °C 10.5 °C 1026.0 hPa SW 3.2 km/h 16.1 km/h 96 % 0.3 mm
03:27 10.9 °C 10.3 °C 1026.0 hPa SW 6.4 km/h 17.7 km/h 96 % 0.3 mm
03:32 10.8 °C 10.0 °C 1026.0 hPa WSW 6.4 km/h 17.7 km/h 95 % 0.3 mm
03:37 10.7 °C 9.8 °C 1026.0 hPa SSE 6.4 km/h 17.7 km/h 94 % 0.3 mm
03:47 10.6 °C 9.5 °C 1026.0 hPa SW 3.2 km/h 14.5 km/h 93 % 0.0 mm
03:52 10.6 °C 9.5 °C 1026.0 hPa Calm   14.5 km/h 93 % 0.0 mm
03:57 10.5 °C 9.6 °C 1026.3 hPa WSW 3.2 km/h 9.7 km/h 94 % 0.0 mm
04:07 10.5 °C 9.6 °C 1026.0 hPa Calm   11.3 km/h 94 % 0.0 mm
04:12 10.5 °C 9.6 °C 1026.0 hPa WSW 1.6 km/h 11.3 km/h 94 % 0.0 mm
04:22 10.4 °C 9.3 °C 1026.0 hPa Calm   8.0 km/h 93 % 0.0 mm
04:32 10.4 °C 9.3 °C 1026.3 hPa WSW 1.6 km/h 8.0 km/h 93 % 0.0 mm
04:42 10.4 °C 9.3 °C 1026.3 hPa SW 4.8 km/h 6.4 km/h 93 % 0.0 mm
04:47 10.4 °C 9.5 °C 1026.3 hPa Calm   6.4 km/h 94 % 0.0 mm
04:57 10.4 °C 9.5 °C 1026.6 hPa SW 4.8 km/h 8.0 km/h 94 % 0.0 mm
05:02 10.4 °C 9.5 °C 1026.6 hPa WSW 1.6 km/h 8.0 km/h 94 % 0.0 mm
05:12 10.4 °C 9.5 °C 1026.6 hPa SW 4.8 km/h 6.4 km/h 94 % 0.0 mm
05:17 10.4 °C 9.3 °C 1026.6 hPa SSW 3.2 km/h 9.7 km/h 93 % 0.0 mm
05:22 10.4 °C 9.3 °C 1026.6 hPa SW 1.6 km/h 9.7 km/h 93 % 0.0 mm
05:32 10.3 °C 9.2 °C 1026.6 hPa WSW 3.2 km/h 9.7 km/h 93 % 0.0 mm
05:37 10.4 °C 9.3 °C 1026.6 hPa SW 6.4 km/h 9.7 km/h 93 % 0.0 mm
05:42 10.4 °C 9.3 °C 1026.6 hPa SW 4.8 km/h 9.7 km/h 93 % 0.0 mm
05:47 10.4 °C 9.3 °C 1026.6 hPa WSW 1.6 km/h 9.7 km/h 93 % 0.0 mm
05:57 10.4 °C 9.3 °C 1026.6 hPa WSW 3.2 km/h 8.0 km/h 93 % 0.0 mm
06:04 10.4 °C 9.2 °C 1026.6 hPa WSW 3.2 km/h 8.0 km/h 92 % 0.0 mm
06:12 10.4 °C 8.8 °C 1027.0 hPa WSW 3.2 km/h 14.5 km/h 90 % 0.0 mm
06:17 10.4 °C 8.8 °C 1027.0 hPa SW 3.2 km/h 14.5 km/h 90 % 0.0 mm
06:27 10.3 °C 8.7 °C 1027.0 hPa Calm   11.3 km/h 90 % 0.0 mm
06:32 10.3 °C 8.7 °C 1027.0 hPa WSW 3.2 km/h 8.0 km/h 90 % 0.0 mm
06:37 10.3 °C 8.7 °C 1027.0 hPa SW 3.2 km/h 8.0 km/h 90 % 0.0 mm
06:44 10.3 °C 8.7 °C 1027.0 hPa SSW 3.2 km/h 8.0 km/h 90 % 0.0 mm
06:52 10.2 °C 8.8 °C 1027.0 hPa WSW 1.6 km/h 4.8 km/h 91 % 0.0 mm
06:57 10.2 °C 8.8 °C 1027.0 hPa WSW 1.6 km/h 4.8 km/h 91 % 0.0 mm
07:02 10.2 °C 9.0 °C 1027.0 hPa SSW 4.8 km/h 4.8 km/h 92 % 0.0 mm
07:12 10.2 °C 9.0 °C 1027.3 hPa SW 3.2 km/h 11.3 km/h 92 % 0.0 mm
07:22 10.2 °C 9.0 °C 1027.3 hPa Calm   9.7 km/h 92 % 0.0 mm
07:27 10.2 °C 9.0 °C 1027.3 hPa SW 1.6 km/h 9.7 km/h 92 % 0.0 mm
07:37 10.2 °C 9.0 °C 1027.7 hPa SW 3.2 km/h 8.0 km/h 92 % 0.0 mm
07:42 10.2 °C 9.0 °C 1027.7 hPa Calm   9.7 km/h 92 % 0.0 mm
07:47 10.2 °C 8.8 °C 1027.7 hPa SW 3.2 km/h 11.3 km/h 91 % 0.0 mm
07:57 10.2 °C 8.8 °C 1027.7 hPa WSW 1.6 km/h 8.0 km/h 91 % 0.0 mm
08:02 10.2 °C 8.8 °C 1027.7 hPa Calm   8.0 km/h 91 % 0.0 mm
08:12 10.2 °C 8.8 °C 1028.0 hPa Calm   8.0 km/h 91 % 0.0 mm
08:17 10.1 °C 8.7 °C 1028.0 hPa SW 1.6 km/h 8.0 km/h 91 % 0.0 mm
08:27 10.1 °C 8.7 °C 1028.0 hPa SW 1.6 km/h 8.0 km/h 91 % 0.0 mm
08:32 10.1 °C 8.7 °C 1028.3 hPa SW 3.2 km/h 4.8 km/h 91 % 0.0 mm
08:42 10.0 °C 8.8 °C 1028.3 hPa SW 3.2 km/h 9.7 km/h 92 % 0.0 mm
08:52 9.9 °C 9.0 °C 1028.7 hPa WSW 6.4 km/h 9.7 km/h 94 % 0.0 mm
08:57 9.8 °C 8.9 °C 1028.7 hPa Calm   9.7 km/h 94 % 0.0 mm
09:07 9.8 °C 8.9 °C 1028.7 hPa SW 1.6 km/h 6.4 km/h 94 % 0.0 mm
09:12 9.8 °C 8.9 °C 1028.7 hPa SW 3.2 km/h 6.4 km/h 94 % 0.0 mm
09:17 9.8 °C 8.9 °C 1028.7 hPa Calm   4.8 km/h 94 % 0.0 mm
09:27 9.9 °C 9.0 °C 1028.7 hPa SW 3.2 km/h 9.7 km/h 94 % 0.0 mm
09:37 9.9 °C 9.0 °C 1028.7 hPa SW 1.6 km/h 9.7 km/h 94 % 0.0 mm
09:42 9.9 °C 9.0 °C 1028.7 hPa SW 4.8 km/h 8.0 km/h 94 % 0.0 mm
09:47 10.0 °C 9.1 °C 1028.7 hPa SW 3.2 km/h 8.0 km/h 94 % 0.0 mm
09:57 10.1 °C 9.0 °C 1029.0 hPa SW 3.2 km/h 8.0 km/h 93 % 0.0 mm
10:12 10.1 °C 9.0 °C 1029.0 hPa SSW 3.2 km/h 9.7 km/h 93 % 0.0 mm
10:17 10.1 °C 9.0 °C 1029.3 hPa WSW 4.8 km/h 8.0 km/h 93 % 0.0 mm
10:27 10.1 °C 9.0 °C 1029.3 hPa WSW 3.2 km/h 8.0 km/h 93 % 0.0 mm
10:32 10.1 °C 9.0 °C 1029.3 hPa SSW 4.8 km/h 8.0 km/h 93 % 0.0 mm
10:37 10.2 °C 9.1 °C 1029.3 hPa WSW 3.2 km/h 8.0 km/h 93 % 0.0 mm
10:47 10.3 °C 9.2 °C 1029.3 hPa WSW 3.2 km/h 9.7 km/h 93 % 0.0 mm
10:52 10.4 °C 9.3 °C 1029.3 hPa WSW 1.6 km/h 11.3 km/h 93 % 0.0 mm
10:59 10.6 °C 9.4 °C 1029.3 hPa SSW 1.6 km/h 11.3 km/h 92 % 0.0 mm
11:07 10.7 °C 9.5 °C 1029.3 hPa SSW 6.4 km/h 11.3 km/h 92 % 0.0 mm
11:17 10.6 °C 9.4 °C 1029.3 hPa SW 4.8 km/h 8.0 km/h 92 % 0.0 mm
11:22 10.6 °C 9.4 °C 1029.7 hPa WSW 3.2 km/h 9.7 km/h 92 % 0.0 mm
11:32 10.6 °C 9.4 °C 1029.7 hPa WSW 8.0 km/h 12.9 km/h 92 % 0.0 mm
11:37 10.6 °C 9.2 °C 1029.7 hPa SW 6.4 km/h 17.7 km/h 91 % 0.0 mm
11:42 10.8 °C 9.2 °C 1029.7 hPa NNW 1.6 km/h 17.7 km/h 90 % 0.0 mm
11:52 10.9 °C 9.2 °C 1030.0 hPa SW 4.8 km/h 12.9 km/h 89 % 0.0 mm
11:57 11.0 °C 9.3 °C 1030.0 hPa SW 3.2 km/h 12.9 km/h 89 % 0.0 mm
12:02 11.1 °C 9.4 °C 1030.0 hPa South 1.6 km/h 12.9 km/h 89 % 0.0 mm
12:07 11.1 °C 9.4 °C 1030.0 hPa SW 4.8 km/h 11.3 km/h 89 % 0.0 mm
12:17 11.1 °C 9.4 °C 1029.7 hPa WSW 3.2 km/h 11.3 km/h 89 % 0.0 mm
12:27 11.1 °C 9.2 °C 1029.7 hPa SW 3.2 km/h 11.3 km/h 88 % 0.0 mm
12:32 11.1 °C 9.2 °C 1029.7 hPa SW 9.7 km/h 11.3 km/h 88 % 0.0 mm
12:42 11.0 °C 9.1 °C 1029.7 hPa West 3.2 km/h 14.5 km/h 88 % 0.0 mm
12:47 11.0 °C 8.9 °C 1029.3 hPa SSW 9.7 km/h 14.5 km/h 87 % 0.0 mm
12:57 10.9 °C 8.8 °C 1029.3 hPa SSW 6.4 km/h 12.9 km/h 87 % 0.0 mm
13:07 10.9 °C 8.8 °C 1029.3 hPa WSW 3.2 km/h 12.9 km/h 87 % 0.0 mm
13:12 11.0 °C 8.9 °C 1029.3 hPa SW 3.2 km/h 14.5 km/h 87 % 0.0 mm
13:17 11.1 °C 8.8 °C 1029.3 hPa WSW 1.6 km/h 14.5 km/h 86 % 0.0 mm
13:32 11.2 °C 8.9 °C 1029.3 hPa SW 4.8 km/h 17.7 km/h 86 % 0.0 mm
13:37 11.2 °C 9.1 °C 1029.3 hPa SW 4.8 km/h 17.7 km/h 87 % 0.0 mm
13:42 11.2 °C 8.9 °C 1029.0 hPa SW 9.7 km/h 14.5 km/h 86 % 0.0 mm
13:47 11.3 °C 9.0 °C 1029.3 hPa SW 9.7 km/h 14.5 km/h 86 % 0.0 mm
13:57 11.2 °C 8.8 °C 1029.3 hPa SW 8.0 km/h 16.1 km/h 85 % 0.0 mm
14:02 11.2 °C 8.8 °C 1029.3 hPa SW 4.8 km/h 16.1 km/h 85 % 0.0 mm
14:12 11.2 °C 8.9 °C 1029.0 hPa SW 6.4 km/h 12.9 km/h 86 % 0.0 mm
14:22 11.1 °C 8.8 °C 1029.0 hPa SW 8.0 km/h 14.5 km/h 86 % 0.0 mm
14:27 11.1 °C 9.0 °C 1028.7 hPa SW 6.4 km/h 14.5 km/h 87 % 0.0 mm
14:32 11.0 °C 8.9 °C 1028.7 hPa SSW 3.2 km/h 17.7 km/h 87 % 0.0 mm
14:42 11.0 °C 9.4 °C 1028.7 hPa SW 11.3 km/h 14.5 km/h 90 % 0.0 mm
14:47 11.1 °C 9.2 °C 1028.7 hPa Calm   16.1 km/h 88 % 0.0 mm
14:57 11.2 °C 9.1 °C 1028.7 hPa SW 6.4 km/h 16.1 km/h 87 % 0.0 mm
15:02 11.2 °C 9.3 °C 1028.7 hPa WSW 1.6 km/h 12.9 km/h 88 % 0.0 mm
15:07 11.2 °C 9.3 °C 1028.7 hPa West 1.6 km/h 12.9 km/h 88 % 0.0 mm
15:19 11.2 °C 9.3 °C 1028.7 hPa Calm   9.7 km/h 88 % 0.0 mm
15:27 11.2 °C 9.3 °C 1028.7 hPa SW 3.2 km/h 9.7 km/h 88 % 0.0 mm
15:32 11.2 °C 9.3 °C 1028.3 hPa West 4.8 km/h 8.0 km/h 88 % 0.0 mm
15:37 11.3 °C 9.2 °C 1028.3 hPa West 4.8 km/h 9.7 km/h 87 % 0.0 mm
15:47 11.3 °C 9.4 °C 1028.7 hPa ESE 1.6 km/h 17.7 km/h 88 % 0.0 mm
15:57 11.1 °C 9.4 °C 1028.3 hPa SW 3.2 km/h 14.5 km/h 89 % 0.0 mm
16:02 11.0 °C 9.4 °C 1028.3 hPa WSW 6.4 km/h 16.1 km/h 90 % 0.0 mm
16:12 10.8 °C 9.6 °C 1028.3 hPa SW 9.7 km/h 16.1 km/h 92 % 0.0 mm
16:22 10.7 °C 9.6 °C 1028.3 hPa WSW 4.8 km/h 11.3 km/h 93 % 0.0 mm
16:34 10.7 °C 9.5 °C 1028.3 hPa WSW 3.2 km/h 11.3 km/h 92 % 0.0 mm
16:42 10.9 °C 9.5 °C 1028.3 hPa SW 6.4 km/h 17.7 km/h 91 % 0.0 mm
16:47 10.9 °C 9.5 °C 1028.3 hPa WSW 4.8 km/h 17.7 km/h 91 % 0.0 mm
16:55 10.9 °C 9.5 °C 1028.3 hPa WSW 1.6 km/h 17.7 km/h 91 % 0.0 mm
17:02 10.9 °C 9.5 °C 1028.7 hPa Calm   8.0 km/h 91 % 0.0 mm
17:12 10.9 °C 9.5 °C 1028.3 hPa SW 3.2 km/h 8.0 km/h 91 % 0.0 mm
17:17 10.9 °C 9.5 °C 1028.3 hPa SW 3.2 km/h 11.3 km/h 91 % 0.0 mm
17:27 10.9 °C 9.7 °C 1028.3 hPa SW 1.6 km/h 9.7 km/h 92 % 0.0 mm
17:37 10.9 °C 9.8 °C 1028.3 hPa SW 1.6 km/h 9.7 km/h 93 % 0.0 mm
17:42 10.8 °C 9.7 °C 1028.3 hPa Calm   8.0 km/h 93 % 0.0 mm
17:47 10.8 °C 9.7 °C 1028.3 hPa SW 6.4 km/h 11.3 km/h 93 % 0.0 mm
17:52 10.7 °C 9.6 °C 1028.3 hPa SW 4.8 km/h 11.3 km/h 93 % 0.0 mm
18:02 10.7 °C 9.6 °C 1028.3 hPa SW 1.6 km/h 8.0 km/h 93 % 0.0 mm
18:07 10.7 °C 9.6 °C 1028.3 hPa SW 3.2 km/h 8.0 km/h 93 % 0.0 mm
18:17 10.8 °C 9.6 °C 1028.3 hPa WSW 1.6 km/h 11.3 km/h 92 % 0.0 mm
18:27 10.9 °C 9.5 °C 1028.3 hPa SW 4.8 km/h 11.3 km/h 91 % 0.0 mm
18:32 10.9 °C 9.5 °C 1028.3 hPa SW 3.2 km/h 11.3 km/h 91 % 0.0 mm
18:42 11.0 °C 9.4 °C 1028.3 hPa SW 4.8 km/h 12.9 km/h 90 % 0.0 mm
18:47 11.0 °C 9.4 °C 1028.3 hPa SW 4.8 km/h 11.3 km/h 90 % 0.0 mm
18:52 10.9 °C 9.3 °C 1028.3 hPa WSW 9.7 km/h 11.3 km/h 90 % 0.0 mm
18:57 10.9 °C 9.3 °C 1028.3 hPa SSW 4.8 km/h 12.9 km/h 90 % 0.0 mm
19:02 10.9 °C 9.2 °C 1028.3 hPa WSW 3.2 km/h 12.9 km/h 89 % 0.0 mm
19:12 10.9 °C 9.2 °C 1028.3 hPa SSW 8.0 km/h 11.3 km/h 89 % 0.0 mm
19:17 10.9 °C 9.2 °C 1028.3 hPa WSW 4.8 km/h 14.5 km/h 89 % 0.0 mm
19:27 10.9 °C 9.2 °C 1028.7 hPa SW 4.8 km/h 16.1 km/h 89 % 0.0 mm
19:32 10.9 °C 9.2 °C 1028.7 hPa WSW 1.6 km/h 16.1 km/h 89 % 0.0 mm
19:42 10.9 °C 9.2 °C 1028.3 hPa SW 4.8 km/h 9.7 km/h 89 % 0.0 mm
19:47 10.8 °C 9.1 °C 1028.3 hPa West 3.2 km/h 9.7 km/h 89 % 0.0 mm
19:52 10.9 °C 9.2 °C 1028.3 hPa Calm   9.7 km/h 89 % 0.0 mm
20:02 10.9 °C 9.0 °C 1028.3 hPa West 6.4 km/h 11.3 km/h 88 % 0.0 mm
20:07 10.8 °C 9.1 °C 1028.3 hPa SSW 6.4 km/h 11.3 km/h 89 % 0.0 mm
20:17 10.8 °C 9.1 °C 1028.3 hPa SW 3.2 km/h 12.9 km/h 89 % 0.0 mm
20:27 10.8 °C 8.9 °C 1028.3 hPa SW 1.6 km/h 14.5 km/h 88 % 0.0 mm
20:32 10.8 °C 8.9 °C 1028.3 hPa SW 1.6 km/h 14.5 km/h 88 % 0.0 mm
20:44 10.9 °C 9.0 °C 1028.3 hPa SSW 3.2 km/h 12.9 km/h 88 % 0.0 mm
20:52 10.8 °C 9.1 °C 1028.3 hPa WSW 3.2 km/h 9.7 km/h 89 % 0.0 mm
21:02 10.6 °C 9.0 °C 1028.3 hPa South 4.8 km/h 11.3 km/h 90 % 0.0 mm
21:12 10.6 °C 9.0 °C 1028.3 hPa SW 3.2 km/h 8.0 km/h 90 % 0.0 mm
21:17 10.6 °C 9.2 °C 1028.3 hPa Calm   11.3 km/h 91 % 0.0 mm
21:32 10.4 °C 9.2 °C 1028.3 hPa WNW 3.2 km/h 9.7 km/h 92 % 0.0 mm
21:37 10.4 °C 9.2 °C 1028.0 hPa WSW 3.2 km/h 9.7 km/h 92 % 0.0 mm
21:42 10.4 °C 9.2 °C 1028.3 hPa SW 3.2 km/h 9.7 km/h 92 % 0.0 mm
21:52 10.4 °C 9.2 °C 1028.3 hPa WSW 4.8 km/h 11.3 km/h 92 % 0.0 mm
21:57 10.4 °C 9.2 °C 1028.3 hPa WSW 1.6 km/h 11.3 km/h 92 % 0.0 mm
22:02 10.4 °C 9.3 °C 1028.3 hPa SW 4.8 km/h 11.3 km/h 93 % 0.0 mm
22:12 10.2 °C 9.3 °C 1028.3 hPa SW 6.4 km/h 11.3 km/h 94 % 0.0 mm
22:17 10.1 °C 9.3 °C 1028.3 hPa SW 1.6 km/h 9.7 km/h 95 % 0.0 mm
22:27 10.0 °C 9.2 °C 1028.3 hPa WSW 1.6 km/h 9.7 km/h 95 % 0.0 mm
22:32 10.0 °C 9.2 °C 1028.3 hPa WSW 1.6 km/h 9.7 km/h 95 % 0.0 mm
22:37 10.0 °C 9.2 °C 1028.3 hPa SW 1.6 km/h 8.0 km/h 95 % 0.0 mm
22:47 10.1 °C 9.3 °C 1028.3 hPa SW 3.2 km/h 8.0 km/h 95 % 0.0 mm
22:52 10.1 °C 9.3 °C 1028.3 hPa WSW 1.6 km/h 11.3 km/h 95 % 0.0 mm
22:57 10.0 °C 9.2 °C 1028.0 hPa SW 3.2 km/h 11.3 km/h 95 % 0.0 mm
23:02 10.0 °C 9.2 °C 1028.0 hPa SW 8.0 km/h 9.7 km/h 95 % 0.0 mm
23:12 10.0 °C 9.4 °C 1028.0 hPa SW 4.8 km/h 9.7 km/h 96 % 0.0 mm
23:17 10.0 °C 9.4 °C 1028.0 hPa SW 3.2 km/h 12.9 km/h 96 % 0.0 mm
23:27 10.0 °C 9.4 °C 1028.0 hPa SSW 4.8 km/h 12.9 km/h 96 % 0.3 mm
23:32 10.0 °C 9.4 °C 1028.0 hPa SW 4.8 km/h 9.7 km/h 96 % 0.3 mm
23:42 9.9 °C 9.3 °C 1028.0 hPa Calm   8.0 km/h 96 % 0.3 mm
23:52 9.9 °C 9.3 °C 1027.7 hPa Calm   8.0 km/h 96 % 0.3 mm
23:57 9.9 °C 9.3 °C 1027.7 hPa SSE 3.2 km/h 8.0 km/h 96 % 0.3 mm
Meteo18
Compliments of Weather Underground - 4 mb

Script developed by  Jim McMurry - jmcmurry@mwt.net Adapted for the template by  Wim van der Kuil - Leuven-Template.eu

You find our weather info also at:

European Weather Network

Weather Underground

Equipment we use:

Weather-station
Davis Vue

Weather-program
Meteohub

Weather-server
Raspberry PI 2 B+

Provider
1 and 1

Davis Vue

Meteohub

Raspberry PI 2 B+

1 and 1